This is the latest recevied weather packets stored in our database for station/object KA3ZXO. If no packets are shown the sender has not sent any weather packets the latest 10 day(s).
| Time | Temp. | Humidity | Pressure | Rain* | Wind** | Luminosity | Snow |
|---|---|---|---|---|---|---|---|
| 1778163506 | 13.89° C | 63% | 1012.5 hPa | 0 mm | - | 86 W/m² | - |
| 1778162905 | 13.89° C | 60% | 1012.5 hPa | 0 mm | - | 60 W/m² | - |
| 1778162300 | 14.44° C | 59% | 1012.4 hPa | 0 mm | - | 59 W/m² | - |
| 1778161700 | 14.44° C | 64% | 1012.4 hPa | 0 mm | - | 108 W/m² | - |
| 1778161097 | 14.44° C | 65% | 1012.4 hPa | 0 mm | - | 106 W/m² | - |
| 1778160498 | 13.89° C | 67% | 1012.4 hPa | 0 mm | - | 90 W/m² | - |
| 1778159897 | 13.89° C | 74% | 1012.3 hPa | 0 mm | - | 51 W/m² | - |
| 1778159296 | 13.89° C | 79% | 1012.4 hPa | 0 mm | - | 53 W/m² | - |
| 1778158693 | 13.89° C | 82% | 1012.2 hPa | 0 mm | - | 83 W/m² | - |
| 1778158093 | 13.89° C | 83% | 1012.3 hPa | 0 mm | - | 61 W/m² | - |
| 1778157488 | 13.89° C | 85% | 1012.2 hPa | 0 mm | - | 30 W/m² | - |
| 1778156886 | 13.89° C | 85% | 1012 hPa | 0 mm | - | 44 W/m² | - |
| 1778156284 | 13.33° C | 86% | 1012 hPa | 0 mm | - | 38 W/m² | - |
| 1778155682 | 13.33° C | 86% | 1012.3 hPa | 0 mm | - | 24 W/m² | - |
| 1778155081 | 13.33° C | 86% | 1012.4 hPa | 0 mm | - | 21 W/m² | - |
| 1778154479 | 13.33° C | 86% | 1012.3 hPa | 0 mm | - | 19 W/m² | - |
| 1778153873 | 13.33° C | 86% | 1012.1 hPa | 0 mm | - | 22 W/m² | - |
| 1778153274 | 13.33° C | 87% | 1012.3 hPa | 0 mm | - | 19 W/m² | - |
| 1778152668 | 13.33° C | 88% | 1012.1 hPa | 0 mm | - | 10 W/m² | - |
| 1778152066 | 13.33° C | 88% | 1012 hPa | 0 mm | - | 6 W/m² | - |
| 1778151466 | 13.33° C | 89% | 1012 hPa | 0 mm | - | 4 W/m² | - |
| 1778150865 | 13.33° C | 88% | 1011.7 hPa | 0 mm | - | 4 W/m² | - |
| 1778150264 | 13.33° C | 86% | 1011.3 hPa | 0 mm | - | 5 W/m² | - |
| 1778149662 | 13.33° C | 84% | 1011.5 hPa | 0 mm | - | 1 W/m² | - |
| 1778149061 | 13.33° C | 83% | 1011.5 hPa | 0 mm | - | 1 W/m² | - |
* Rain latest hour (hover to see other rain measurements)
** Current wind speed in m/s (hover to see current wind gust speed)